Volver al catálogo

INTELSAT 2

PAS 2

ActivoComunicacionesGEO
NORAD 23175·PAYLOAD·🇺🇸 United States

Lanzado Jul 8, 1994 desde Guiana Space Centre

Loading…

TLE

ActualizadoSource: Space-Track

Época: Sep 14, 2026, 06:48 UTC

1 23175U 94040A   26257.28378207 -.00000178  00000-0  00000-0 0  9991
2 23175  12.3735  33.8223 0003202 111.1238 243.7992  0.99192236116528

Sigue INTELSAT 2 en tiempo real con AllMySat

Download on the App Store